{"data":{"norad_id":49817,"epoch":"2026-09-20T03:54:19.884960Z","epoch_age_seconds":51136,"freshness":"FRESH","line1":"1 49817U 21118A   26263.16273015 -.00000048  00000+0  00000+0 0  9997","line2":"2 49817   0.5592  84.1449 0000926 207.9738  13.6059  1.00272172 17526","mean_motion":1.00272172,"eccentricity":9.26e-5,"inclination_deg":0.5592,"raan_deg":84.1449,"arg_perigee_deg":207.9738,"mean_anomaly_deg":13.6059,"bstar":0,"rev_number":1752,"period_min":1436.0913614198,"perigee_km":35782.582027258,"apogee_km":35790.390915525,"semimajor_km":42164.623471391,"source":"CELESTRAK","updated_at":"2026-09-20T09:00:35.301235Z"}}